Weather in Okhvat

Russia / Tver Oblast     56°46′18″N   32°26′34″E
temp.,
°C
wind,
m/s
gust,
m/s
humid.,
%
clouds,
%
prec.,
mm/h
press.,
hPa
HPBL,
m
28 september, tue
tue2800:00+8nne2890100 0.1 1029369
03:00+7nne279513 0.1 1029260
06:00+5ne289931 0.0 1030227
09:00+7ene3888100 0.0 1031416
12:00+8ene3579100 0.1 1032724
15:00+9e3368100 0.1 1033962
18:00+8e247470 0.0 1034165
21:00+5ese22795 0.0 103512
29 september, wed
wed2900:00+3ese118915 0.0 103610
03:00+2e11935 0.0 103710
06:00+2e119416 0.0 103710
09:00+5ese118084 0.0 1037131
12:00+10ese125669 0.0 1037702
15:00+12se114796 0.0 1035976
18:00+8e1166100 0.0 103510
21:00+5se117979 0.0 103610
30 september, thu
thu3000:00+4sse118478 0.0 103610
03:00+3s118752 0.0 103610
06:00+2sse119080 0.0 103610
09:00+6sse127361 0.0 1036130
12:00+11sse235445 0.0 1035642
15:00+12s23495 0.0 1034942
18:00+9s22705 0.0 103413
21:00+6s227967 0.0 103416
1 october, fri
fri100:00+5ssw228671 0.0 103529
03:00+4ssw229142 0.0 103528
06:00+3s229457 0.0 103540
09:00+6ssw257863 0.0 1035178
12:00+11ssw355651 0.0 1034655
15:00+13ssw344927 0.0 1033941
18:00+9ssw227165 0.0 103321
21:00+6ssw228355 0.0 103328
2 october, sat
sat200:00+5ssw239052 0.0 103456
03:00+4s249527 0.0 103374
06:00+4s24965 0.0 103387
09:00+7s368559 0.0 1032208
12:00+12s356242 0.0 1032738
15:00+13s3556100 0.0 10311059
18:00+10sse2574100 0.0 1030114
21:00+8s3980100 0.0 1030269